Location: Charbonni�res
(45.9952°N, 2.9982°E)
Time: 14:22:54
(UTC+00:00)

H-2A R/B - Pass Details

Date: 29 November 2020
Orbit: 499 x 540 km, 97.3° (Epoch: 22 January)

Event Time Altitude Azimuth Distance (km) Brightness Sun altitude
Rises 06:09:19 0° 3° (N) 2,711 6.2 -9.9°
Reaches altitude 10° 06:11:35 10° 354° (N) 1,811 5.2 -9.5°
Maximum altitude 06:15:07 33° 290° (WNW) 920 3.4 -9.0°
Drops below altitude 10° 06:18:36 10° 226° (SW) 1,784 5.2 -8.4°
Sets 06:20:49 0° 216° (SW) 2,664 6.2 -8.0°
